LHX077 EDDL-EDDF

Flight info

Callsign LHX077
Flight time 0h 29m
Altitude 23000
Route COL6T COL T911 ROLIS ROLIS5A
Aircraft A319/M-SDE2E3FGIJ1LORWXY/HB1

Departure

Time 2026-05-04 19:46
Airport Düsseldorf Airport (EDDL)

Arrival

Time 2026-05-04 20:15
Airport Frankfurt Main Airport (EDDF)
Time Latitude Longitude Altitude Speed Heading
2026-05-04 18:49 51.28106 6.76719 129 ft 0 kts 276°
2026-05-04 19:28 51.28104 6.76744 124 ft 4 kts 284°
2026-05-04 19:28 51.28094 6.76780 125 ft 4 kts 315°
2026-05-04 19:28 51.28074 6.76796 125 ft 4 kts 14°
2026-05-04 19:29 51.28064 6.76791 126 ft 2 kts 16°
2026-05-04 19:29 51.28062 6.76790 125 ft 0 kts 17°
2026-05-04 19:33 51.28066 6.76792 127 ft 2 kts 17°
2026-05-04 19:33 51.28090 6.76804 127 ft 5 kts 17°
2026-05-04 19:33 51.28137 6.76827 128 ft 9 kts 17°
2026-05-04 19:33 51.28216 6.76845 129 ft 14 kts
2026-05-04 19:34 51.28330 6.76867 129 ft 19 kts
2026-05-04 19:34 51.28445 6.76777 123 ft 15 kts 329°
2026-05-04 19:34 51.28527 6.76850 126 ft 16 kts 50°
2026-05-04 19:34 51.28601 6.76992 127 ft 18 kts 50°
2026-05-04 19:35 51.28672 6.77158 127 ft 18 kts 52°
2026-05-04 19:35 51.28753 6.77324 129 ft 19 kts 52°
2026-05-04 19:35 51.28836 6.77498 127 ft 20 kts 53°
2026-05-04 19:35 51.28920 6.77683 126 ft 21 kts 53°
2026-05-04 19:36 51.29012 6.77866 128 ft 21 kts 51°
2026-05-04 19:36 51.29099 6.78058 132 ft 21 kts 50°
2026-05-04 19:36 51.29169 6.78201 136 ft 13 kts 54°
2026-05-04 19:36 51.29217 6.78306 140 ft 10 kts 53°
2026-05-04 19:37 51.29251 6.78374 143 ft 6 kts 50°
2026-05-04 19:37 51.29269 6.78408 145 ft 2 kts 51°
2026-05-04 19:37 51.29271 6.78414 145 ft 0 kts 57°
2026-05-04 19:38 51.29293 6.78462 147 ft 8 kts 51°
2026-05-04 19:38 51.29316 6.78508 149 ft 7 kts 51°
2026-05-04 19:38 51.29335 6.78545 151 ft 0 kts 47°
2026-05-04 19:41 51.29343 6.78555 151 ft 4 kts 33°
2026-05-04 19:41 51.29391 6.78576 152 ft 8 kts
2026-05-04 19:41 51.29421 6.78571 153 ft 4 kts 354°
2026-05-04 19:41 51.29438 6.78568 153 ft 0 kts 354°
2026-05-04 19:44 51.29439 6.78568 153 ft 1 kts 354°
2026-05-04 19:45 51.29452 6.78566 152 ft 3 kts 354°
2026-05-04 19:45 51.29489 6.78559 152 ft 8 kts 351°
2026-05-04 19:45 51.29517 6.78485 151 ft 10 kts 269°
2026-05-04 19:45 51.29465 6.78356 147 ft 28 kts 234°
2026-05-04 19:46 51.29159 6.77714 132 ft 114 kts 232°
2026-05-04 19:46 51.28564 6.76469 402 ft 150 kts 230°
2026-05-04 19:46 51.27922 6.75108 1103 ft 157 kts 230°
2026-05-04 19:46 51.27247 6.73661 1715 ft 173 kts 231°
2026-05-04 19:47 51.26488 6.72019 2216 ft 194 kts 232°
2026-05-04 19:47 51.25618 6.70174 2628 ft 225 kts 232°
2026-05-04 19:47 51.24614 6.68049 3220 ft 251 kts 232°
2026-05-04 19:47 51.23551 6.65787 4236 ft 260 kts 232°
2026-05-04 19:48 51.22183 6.63921 5325 ft 264 kts 203°
2026-05-04 19:48 51.20363 6.63476 6415 ft 268 kts 179°
2026-05-04 19:48 51.18489 6.63660 7494 ft 272 kts 174°
2026-05-04 19:48 51.16594 6.64013 8537 ft 277 kts 171°
2026-05-04 19:49 51.14791 6.65108 9487 ft 286 kts 146°
2026-05-04 19:49 51.13471 6.67478 9789 ft 289 kts 119°
2026-05-04 19:49 51.13073 6.70645 10083 ft 307 kts 91°
2026-05-04 19:49 51.13205 6.74182 10497 ft 332 kts 89°
2026-05-04 19:50 51.13356 6.77979 10941 ft 353 kts 89°
2026-05-04 19:50 51.13529 6.81942 11709 ft 362 kts 89°
2026-05-04 19:50 51.13690 6.85961 12607 ft 366 kts 89°
2026-05-04 19:50 51.13840 6.90028 13488 ft 371 kts 89°
2026-05-04 19:51 51.13985 6.94160 14286 ft 375 kts 89°
2026-05-04 19:51 51.14128 6.98333 15048 ft 380 kts 89°
2026-05-04 19:51 51.14273 7.02560 15815 ft 384 kts 89°
2026-05-04 19:51 51.14413 7.06827 16591 ft 388 kts 91°
2026-05-04 19:52 51.14241 7.11127 17352 ft 390 kts 101°
2026-05-04 19:52 51.13638 7.15338 18092 ft 393 kts 108°
2026-05-04 19:52 51.12533 7.19308 18714 ft 393 kts 126°
2026-05-04 19:52 51.10718 7.22526 19348 ft 393 kts 143°
2026-05-04 19:53 51.08419 7.24876 19989 ft 394 kts 153°
2026-05-04 19:53 51.06029 7.27046 20647 ft 398 kts 153°
2026-05-04 19:53 51.03604 7.29229 21274 ft 402 kts 153°
2026-05-04 19:53 51.01165 7.31421 21894 ft 405 kts 153°
2026-05-04 19:54 50.98699 7.33641 22497 ft 409 kts 153°
2026-05-04 19:54 50.96209 7.35885 22904 ft 412 kts 153°
2026-05-04 19:54 50.93707 7.38141 22998 ft 421 kts 153°
2026-05-04 19:54 50.91121 7.40466 23003 ft 431 kts 153°
2026-05-04 19:55 50.88499 7.42822 23006 ft 434 kts 153°
2026-05-04 19:55 50.85874 7.45184 23006 ft 435 kts 153°
2026-05-04 19:55 50.83244 7.47547 23004 ft 435 kts 153°
2026-05-04 19:55 50.80607 7.49910 23007 ft 435 kts 153°
2026-05-04 19:56 50.78010 7.52229 22454 ft 427 kts 153°
2026-05-04 19:56 50.75447 7.54513 21474 ft 431 kts 153°
2026-05-04 19:56 50.72805 7.56848 20185 ft 438 kts 153°
2026-05-04 19:56 50.70111 7.59219 19229 ft 437 kts 153°
2026-05-04 19:57 50.67481 7.61522 18821 ft 424 kts 153°
2026-05-04 19:57 50.64939 7.63760 18330 ft 414 kts 153°
2026-05-04 19:57 50.62418 7.65983 17205 ft 417 kts 153°
2026-05-04 19:57 50.59869 7.68222 16109 ft 421 kts 153°
2026-05-04 19:58 50.57336 7.70442 15494 ft 413 kts 153°
2026-05-04 19:58 50.54848 7.72622 14884 ft 406 kts 153°
2026-05-04 19:58 50.52392 7.74772 14282 ft 401 kts 153°
2026-05-04 19:58 50.49968 7.76885 13643 ft 397 kts 154°
2026-05-04 19:59 50.47561 7.78979 12977 ft 392 kts 154°
2026-05-04 19:59 50.45191 7.81045 12305 ft 387 kts 154°
2026-05-04 19:59 50.42928 7.83257 11853 ft 380 kts 146°
2026-05-04 19:59 50.40881 7.85806 11600 ft 369 kts 144°
2026-05-04 20:00 50.38918 7.88255 11337 ft 353 kts 145°
2026-05-04 20:00 50.37028 7.90603 11017 ft 341 kts 145°
2026-05-04 20:00 50.35186 7.92885 10654 ft 333 kts 145°
2026-05-04 20:00 50.33346 7.95157 10459 ft 339 kts 145°
2026-05-04 20:01 50.31488 7.97439 10285 ft 340 kts 146°
2026-05-04 20:01 50.29627 7.99718 10120 ft 340 kts 145°
2026-05-04 20:01 50.27769 8.01996 9978 ft 339 kts 145°
2026-05-04 20:01 50.26011 8.04463 9984 ft 343 kts 134°
2026-05-04 20:02 50.24569 8.07363 9992 ft 335 kts 131°
2026-05-04 20:02 50.23159 8.10250 9982 ft 333 kts 131°
2026-05-04 20:02 50.21789 8.13179 9985 ft 336 kts 124°
2026-05-04 20:02 50.20917 8.16526 9843 ft 334 kts 106°
2026-05-04 20:03 50.20784 8.20134 9577 ft 336 kts 90°
2026-05-04 20:03 50.21047 8.26499 9113 ft 333 kts 89°
2026-05-04 20:03 50.21152 8.28877 8983 ft 332 kts 88°
2026-05-04 20:04 50.21521 8.37427 8976 ft 328 kts 89°
2026-05-04 20:04 50.21673 8.40985 8978 ft 329 kts 89°
2026-05-04 20:04 50.21823 8.44546 8999 ft 328 kts 89°
2026-05-04 20:05 50.21968 8.48098 8983 ft 327 kts 89°
2026-05-04 20:05 50.22113 8.51596 8746 ft 316 kts 89°
2026-05-04 20:05 50.22254 8.54933 8616 ft 301 kts 89°
2026-05-04 20:05 50.22387 8.58126 8486 ft 288 kts 89°
2026-05-04 20:06 50.22510 8.61190 8356 ft 277 kts 89°
2026-05-04 20:06 50.22625 8.64124 8227 ft 265 kts 90°
2026-05-04 20:06 50.22733 8.66936 7993 ft 256 kts 90°
2026-05-04 20:06 50.22837 8.69699 7651 ft 253 kts 90°
2026-05-04 20:07 50.22936 8.72433 7289 ft 251 kts 90°
2026-05-04 20:07 50.22790 8.75099 6927 ft 244 kts 113°
2026-05-04 20:07 50.22045 8.77447 6685 ft 241 kts 123°
2026-05-04 20:07 50.21203 8.79703 6448 ft 239 kts 124°
2026-05-04 20:08 50.20370 8.81894 6302 ft 230 kts 124°
2026-05-04 20:08 50.19566 8.84000 6076 ft 223 kts 124°
2026-05-04 20:08 50.18775 8.86053 5790 ft 218 kts 124°
2026-05-04 20:08 50.18000 8.88046 5542 ft 212 kts 124°
2026-05-04 20:09 50.17237 8.89995 5293 ft 210 kts 123°
2026-05-04 20:09 50.16439 8.91861 5080 ft 205 kts 135°
2026-05-04 20:09 50.15245 8.92948 4905 ft 199 kts 166°
2026-05-04 20:09 50.13879 8.92874 4759 ft 200 kts 196°
2026-05-04 20:10 50.12630 8.91950 4502 ft 200 kts 215°
2026-05-04 20:10 50.11658 8.90426 4285 ft 199 kts 235°
2026-05-04 20:10 50.11061 8.88498 4109 ft 196 kts 249°
2026-05-04 20:10 50.10600 8.86532 4020 ft 192 kts 249°
2026-05-04 20:11 50.10143 8.84590 3824 ft 190 kts 249°
2026-05-04 20:11 50.09687 8.82654 3589 ft 190 kts 250°
2026-05-04 20:11 50.09230 8.80715 3342 ft 191 kts 250°
2026-05-04 20:11 50.08771 8.78769 3086 ft 192 kts 250°
2026-05-04 20:12 50.08311 8.76816 2834 ft 193 kts 250°
2026-05-04 20:12 50.07852 8.74876 2590 ft 190 kts 251°
2026-05-04 20:12 50.07400 8.72965 2329 ft 185 kts 251°
2026-05-04 20:12 50.06968 8.71141 2082 ft 175 kts 251°
2026-05-04 20:13 50.06576 8.69401 1864 ft 165 kts 255°
2026-05-04 20:13 50.06438 8.67721 1689 ft 144 kts 270°
2026-05-04 20:13 50.06296 8.66259 1450 ft 136 kts 255°
2026-05-04 20:13 50.05963 8.64906 1278 ft 139 kts 247°
2026-05-04 20:14 50.05639 8.63500 1082 ft 132 kts 255°
2026-05-04 20:14 50.05338 8.62199 910 ft 123 kts 251°
2026-05-04 20:14 50.05040 8.60934 734 ft 125 kts 251°
2026-05-04 20:14 50.04743 8.59671 557 ft 123 kts 251°
2026-05-04 20:15 50.04451 8.58446 383 ft 120 kts 252°
2026-05-04 20:15 50.04212 8.57432 367 ft 65 kts 250°
2026-05-04 20:15 50.04180 8.57068 364 ft 26 kts 279°
2026-05-04 20:15 50.04214 8.56866 365 ft 4 kts 311°
2026-05-04 20:16 50.04217 8.56859 364 ft 0 kts 311°